Palmer, AK

11:43 PM AKST on December 16, 2017 (GMT -0900)
Palmer Municipal

Weather History for PAAQ - February, 2013

Change the Weather History Date:

Saturday, February 16, 2013

  Actual Average Record
Temperature  
Mean Temperature 21 °F -  
Max Temperature 23 °F 24 °F 48 °F (2015)
Min Temperature 19 °F 5 °F -21 °F (1964)
Degree Days  
Heating Degree Days 44    
Moisture  
Dew Point 15 °F    
Average Humidity 74    
Maximum Humidity 86    
Minimum Humidity 55    
Precipitation  
Precipitation 0.00 in - - ()
Sea Level Pressure  
Sea Level Pressure 29.95 in    
Wind  
Wind Speed 2 mph (North)    
Max Wind Speed 10 mph    
Max Gust Speed -    
Visibility 10 miles    
Events      
Averages and records for this station are not official NWS values.
T = Trace of Precipitation, MM = Missing Value Source: NWS Daily Summary

Daily Weather History Graph

Daily Weather History Graph

Search for Another Location

Airport or City:

Trip Planner

Search our weather history database for the weather conditions in past years. The results will help you decide how hot, cold, wet, or windy it might be!

Date:

Astronomy

Feb. 16, 2013 Rise Set
Actual Time 8:35 AM AKST 5:45 PM AKST
Civil Twilight 7:49 AM AKST 6:32 PM AKST
Nautical Twilight 6:58 AM AKST 7:23 PM AKST
Astronomical Twilight 6:08 AM AKST 8:13 PM AKST
Moon 9:46 AM AKST (2/16) 1:59 AM AKST (2/16)
Length of Visible Light 10h 42m
Length of Day
9h 09m
Waxing Crescent, 41% of the Moon is Illuminated
Feb 16
Waxing Crescent
Feb 17
First Quarter
Feb 25
Full
Mar 4
Last Quarter
Mar 11
New

Hourly Weather History & Observations

Time (AKST) Temp. Windchill Dew Point Humidity Pressure Visibility Wind Dir Wind Speed Gust Speed Precip Events Conditions
12:06 AM 21.2 °F - 14.0 °F 74% 29.90 in 10.0 mi Calm Calm - N/A   Overcast
12:53 AM 23.0 °F - 17.1 °F 78% 29.94 in 10.0 mi Calm Calm - N/A   Overcast
1:49 AM 21.2 °F 14.9 °F 17.6 °F 86% 29.94 in 10.0 mi North 4.6 mph - N/A   Overcast
1:53 AM 21.9 °F 15.7 °F 18.0 °F 85% 29.95 in 10.0 mi NNE 4.6 mph - N/A   Overcast
2:53 AM 21.9 °F - 18.0 °F 85% 29.97 in 10.0 mi Calm Calm - N/A   Overcast
3:53 AM 21.9 °F 17.2 °F 17.1 °F 82% 29.99 in 10.0 mi North 3.5 mph - N/A   Overcast
4:08 AM 21.2 °F 16.4 °F 17.6 °F 86% 29.97 in 10.0 mi North 3.5 mph - N/A   Overcast
4:49 AM 23.0 °F 18.4 °F 15.8 °F 74% 29.97 in 9.0 mi North 3.5 mph - N/A   Overcast
4:53 AM 21.9 °F 15.7 °F 16.0 °F 78% 29.99 in 10.0 mi North 4.6 mph - N/A   Overcast
5:53 AM 21.9 °F - 15.1 °F 75% 29.99 in 10.0 mi Calm Calm - 0.00 in   Overcast
6:53 AM 21.0 °F 16.2 °F 15.1 °F 78% 30.00 in 10.0 mi North 3.5 mph - N/A   Overcast
7:53 AM 21.0 °F - 14.0 °F 74% 30.01 in 10.0 mi Calm Calm - N/A   Overcast
8:34 AM 21.2 °F 16.4 °F 15.8 °F 80% 29.99 in 10.0 mi North 3.5 mph - N/A   Overcast
8:53 AM 21.0 °F 16.2 °F 15.1 °F 78% 30.01 in 10.0 mi NNW 3.5 mph - N/A   Overcast
9:53 AM 21.9 °F - 15.1 °F 75% 30.01 in 10.0 mi Calm Calm - N/A   Overcast
10:36 AM 21.2 °F - 14.0 °F 74% 30.00 in 10.0 mi Calm Calm - N/A   Overcast
10:53 AM 23.0 °F - 14.0 °F 68% 30.02 in 10.0 mi Calm Calm - N/A   Overcast
11:53 AM 21.9 °F 17.2 °F 15.1 °F 75% 30.03 in 10.0 mi ENE 3.5 mph - N/A   Mostly Cloudy
12:53 PM 21.0 °F 16.2 °F 12.9 °F 71% 30.03 in 10.0 mi North 3.5 mph - N/A   Partly Cloudy
1:53 PM 21.9 °F 15.7 °F 10.9 °F 63% 29.99 in 10.0 mi NE 4.6 mph - N/A   Mostly Cloudy
2:53 PM 21.9 °F - 12.9 °F 68% 29.98 in 10.0 mi Calm Calm - N/A   Overcast
3:53 PM 21.9 °F - 14.0 °F 72% 29.96 in 10.0 mi Calm Calm - N/A   Overcast
4:53 PM 21.9 °F - 12.0 °F 66% 29.94 in 10.0 mi Calm Calm - N/A   Overcast
5:53 PM 21.9 °F 17.2 °F 12.0 °F 66% 29.92 in 10.0 mi North 3.5 mph - N/A   Overcast
6:53 PM 21.9 °F 17.2 °F 12.0 °F 66% 29.89 in 10.0 mi North 3.5 mph - N/A   Overcast
7:53 PM 19.9 °F - 15.1 °F 81% 29.88 in 10.0 mi Calm Calm - N/A   Overcast
8:53 PM 21.9 °F 14.5 °F 12.0 °F 66% 29.86 in 10.0 mi North 5.8 mph - N/A   Overcast
9:53 PM 23.0 °F 12.4 °F 9.0 °F 55% 29.83 in 10.0 mi North 10.4 mph - N/A   Overcast
10:53 PM 21.9 °F 11.7 °F 14.0 °F 72% 29.81 in 10.0 mi North 9.2 mph - N/A   Overcast
11:53 PM 21.0 °F 13.4 °F 15.1 °F 78% 29.79 in 10.0 mi NNE 5.8 mph - N/A   Overcast